[Iaude] MPEC Y43: 2023 YO [a=1.12,e=0.12,i=7.3,H=28.5]

mpec at marsden.cfa.harvard.edu mpec at marsden.cfa.harvard.edu
Mon Dec 18 06:53:59 EST 2023


M.P.E.C. 2023-Y43                             Issued 2023 December 18, 11:51 UT

     The Minor Planet Electronic Circulars contain information on unusual
         minor planets, routine data on comets and natural satellites,
         and occasional editorial announcements.  They are published
    on behalf of Division F of the International Astronomical Union by the
          Minor Planet Center, Smithsonian Astrophysical Observatory,
                          Cambridge, MA 02138, U.S.A.
			  
             Prepared using the Tamkin Foundation Computer Network

                              MPC at CFA.HARVARD.EDU
            URL https://www.minorplanetcenter.net/    ISSN 1523-6714

                                    2023 YO                                     


Observations:
     K23Y00O*1C2023 12 17.26372504 08 11.040+14 45 04.75         20.15GVEY043G96
     K23Y00O 1C2023 12 17.26895604 08 08.639+14 47 59.57         20.12GVEY043G96
     K23Y00O 1C2023 12 17.27943204 08 03.793+14 53 52.62         20.49GVEY043G96
     K23Y00O  C2023 12 17.31616104 07 45.102+15 14 11.22         20.0 GVEY043H01
     K23Y00O  C2023 12 17.31949504 07 43.633+15 16 03.90         20.2 GVEY043H01
     K23Y00O KC2023 12 17.32388704 07 43.430+15 18 52.50         20.44GVEY043I52
     K23Y00O KC2023 12 17.32498304 07 42.930+15 19 30.00         19.86GVEY043I52
     K23Y00O KC2023 12 17.32608104 07 42.470+15 20 06.50         20.10GVEY043I52
     K23Y00O KC2023 12 17.32718304 07 41.980+15 20 43.80         20.34GVEY043I52
     K23Y00O  C2023 12 17.33031104 07 38.951+15 22 07.80         20.4 GVEY043H01
     K23Y00O  C2023 12 17.33753504 07 35.868+15 26 11.06         20.3 GVEY043H01
     K23Y00O KC2023 12 17.40838204 07 08.904+16 06 24.41         20.26GVEY043I52
     K23Y00O KC2023 12 17.40948304 07 08.490+16 07 01.56         20.42GVEY043I52
     K23Y00O KC2023 12 17.41058004 07 08.123+16 07 39.04         20.15GVEY043I52
     K23Y00O KC2023 12 17.41167704 07 07.716+16 08 15.76         20.01GVEY043I52
     K23Y00O KB2023 12 17.77001 04 06 37.27 +19 39 57.1          18.2 RZEY043106
     K23Y00O KB2023 12 17.77519 04 06 35.07 +19 43 11.8          18.4 RZEY043106
     K23Y00O KB2023 12 17.78053 04 06 32.90 +19 46 31.8          18.6 RZEY043106
     K23Y00O KB2023 12 17.78586 04 06 30.68 +19 49 50.4          18.9 RZEY043106
     K23Y00O KC2023 12 17.83352 04 06 11.84 +20 19 54.2          19.3 GVEY043104
     K23Y00O KC2023 12 17.89869904 05 38.82 +21 00 27.7          19.8 GVEY043L01
     K23Y00O KC2023 12 17.90021004 05 38.08 +21 01 24.3          20.1 GVEY043L01
     K23Y00O KC2023 12 17.90172204 05 37.31 +21 02 21.0          20.1 GVEY043L01
     K23Y00O KC2023 12 17.90338604 05 36.54 +21 03 23.6          20.1 GVEY043L01
     K23Y00O KC2023 12 17.90509204 05 35.72 +21 04 27.0          20.1 GVEY043L01
     K23Y00O KC2023 12 17.93041 04 05 25.07 +21 20 30.0          19.0 GVEY043104
     K23Y00O KC2023 12 18.00962404 04 48.95 +22 09 34.4          20.4 GVEY043204
     K23Y00O KC2023 12 18.01445304 04 46.75 +22 12 35.0                VEY043204
     K23Y00O KC2023 12 18.01914204 04 44.68 +22 15 30.2                VEY043204

Observer details:
104 San Marcello Pistoiese.  Observers P. Bacci, M. Maestripieri.  Measurer P.
    Bacci.  0.60-m f/4.0 reflector + CCD.
106 Crni Vrh.  Observer H. Mikuz.  0.60-m f/3.3 reflector + CMO.
204 Schiaparelli Observatory.  Observers L. Buzzi, G. Galli.  0.84-m f/3.5
    reflector + CCD.
G96 Mt. Lemmon Survey.  Observer A. R. Gibbs.  Measurers E. C. Beshore, D.
    Fay, J. B. Fazekas, D. C. Fuls, A. R. Gibbs, A. D. Grauer, H. Groeller, J.
    K. Hogan, R. A. Kowalski, S. M. Larson, G. J. Leonard, D. Rankin, R. L.
    Seaman, F. C. Shelly, K. W. Wierzchos.  1.5-m reflector + 10K CCD.
H01 Magdalena Ridge Observatory, Socorro.  Observers W. H. Ryan, E. V. Ryan.
    Measurer W. H. Ryan.  2.4-m f/8.9 Ritchey-Chretien + CCD.
I52 Steward Observatory, Mt. Lemmon Station.  Observer G. J. Leonard.
    Measurers E. C. Beshore, D. Fay, J. B. Fazekas, D. C. Fuls, A. R. Gibbs,
    A. D. Grauer, H. Groeller, J. K. Hogan, R. A. Kowalski, S. M. Larson, G.
    J. Leonard, D. Rankin, R. L. Seaman, F. C. Shelly, K. W. Wierzchos.  1.0-m
    prime focus + CCD.
L01 Visnjan Observatory, Tican.  Observer K. Korlevic.  1.0-m f/2.9 reflector
    + CCD.

Orbital elements:
2023 YO                                                  Earth MOID = 0.0104 AU
Epoch 2023 Sept. 13.0 TT = JDT 2460200.5                Veres                   
M 258.99945              (2000.0)            P               Q                  
n   0.82844961     Peri.   27.52015     -0.38218376     -0.91546430             
a   1.1227731      Node    85.17797     +0.82290847     -0.39916782             
e   0.1239189      Incl.    7.26084     +0.42042505     -0.05089377             
P   1.19           H   28.57          G   0.15           U   6                  
Residuals in seconds of arc
231217 G96  0.5-  0.9+    231217 H01  0.0   0.2-    231217 L01  0.2-  0.1-
231217 G96  0.1+  0.6-    231217 I52  0.0   0.1-    231217 L01  0.2-  0.1-
231217 G96  0.7+  0.9-    231217 I52  0.2-  0.2-    231217 L01  0.7-  0.0
231217 H01  0.0   0.0     231217 I52  0.2+  0.2+    231217 L01  0.2-  0.3+
231217 H01  0.1-  0.3+    231217 I52  0.1+  0.1-    231217 L01  0.1-  0.1-
231217 I52  0.1-  0.3-    231217 106  0.6+  0.1-    231217 104  0.3+  0.3+
231217 I52  0.2-  0.3+    231217 106  0.6-  0.6+    231218 204  0.0   0.4-
231217 I52  0.2+  0.3-    231217 106  0.0   0.5+    231218 204  0.3-  0.2-
231217 I52  0.1+  0.1-    231217 106  0.2+  0.6-    231218 204  0.1+  0.1-
231217 H01  0.0   0.1-    231217 104  0.1-  0.1-

Ephemeris:
2023 YO                  a,e,i = 1.12, 0.12, 7                   q = 0.9836
Date    TT    R. A. (2000) Decl.     Delta      r    Elong.  Phase     V
2023 11 18    04 32 53.7 -33 57 50   0.08044 1.0369   125.0    51.4    25.1
...
2023 12 03    04 29 08.9 -29 50 42   0.04376 1.0135   128.2    49.9    23.7
...
2023 12 11    04 22 12.3 -18 23 24   0.02501 1.0033   137.1    41.9    22.2
...
2023 12 17    04 09 14.3 +12 22 59   0.01375 0.9968   156.7    23.0    20.3
2023 12 18    04 05 12.8 +22 08 13   0.01267 0.9958   158.1    21.6    20.1
2023 12 19    03 59 57.6 +33 18 26   0.01202 0.9949   155.0    24.7    20.1
...
2023 12 25    21 49 50.7 +85 04 50   0.01755 0.9898   110.5    68.5    22.2
...
2024 01 02    16 55 53.0 +66 25 51   0.03449 0.9850    91.9    86.1    24.2
...
2024 01 17    16 39 55.8 +56 06 57   0.06766 0.9826    87.0    89.0    25.8

M. P. C. Staff               (C) Copyright 2023 MPC           M.P.E.C. 2023-Y43





More information about the Iaude mailing list